Location: Chmeli�t?
(49.8978°N, 15.0526°E)
Time: 00:00:35
(UTC+00:00)

H-2A R/B - Pass Details

Date: 07 June 2020
Orbit: 577 x 656 km, 98.5° (Epoch: 11 July)

Event Time Altitude Azimuth Distance (km) Brightness Sun altitude
Rises 01:41:00 0° 152° (SSE) 2,930 5.3 -8.9°
Reaches altitude 10° 01:43:12 10° 148° (SSE) 2,035 4.5 -8.7°
Maximum altitude 01:47:33 58° 70° (ENE) 765 2.9 -8.3°
Drops below altitude 10° 01:52:00 10° 352° (N) 2,077 5.4 -7.8°
Sets 01:54:16 0° 349° (N) 2,996 6.2 -7.6°
